www.pogodaiklimat.ru

АРХИВ ПОГОДЫ в Севастополе

Время (UTC), дата Ветер
(напр.,м/с)
 
Видим.   Явления Облачность Т
(С)
Тd
(С)
f
(%)
Тe
(С)
Тes
(С)
Комфортность P
(гПа)
Po
(гПа)
Тmin
(С)
Tmax
(С)
R
(мм)
S
(см)
12 15.01 СВ 4 10 км 10 баллов +4.9 +2.9 87 +1 +1 по сезону 1016.7 1016.0
15 15.01 СВ 3 10 км 9 баллов +4.4 +2.4 87 +1 +1 по сезону 1016.7 1016.0 2
18 15.01 СВ 3 20 км 2 балла +3.8 +1.8 87 0 0 по сезону 1019.5 1018.7 +8.5 2
21 15.01 СВ 3 10 км 10 баллов +3.1 +1.0 86 -1 -1 по сезону 1020.8 1020.0
00 16.01 В 4 10 км 10 баллов +3.0 +1.4 89 -2 -2 по сезону 1022.1 1021.3
03 16.01 СВ 4 10 км 9 баллов +2.0 +0.4 89 -3 -3 прохладно 1022.1 1021.3 +1.9
06 16.01 В 3 10 км 9 баллов +2.0 +0.1 87 -2 -2 по сезону 1022.1 1021.3 +1.9
09 16.01 С 2 20 км 10 баллов +3.2 +0.8 84 0 0 по сезону 1022.1 1021.3
12 16.01 С 3 20 км 9 баллов +5.0 +1.5 78 +2 +2 по сезону 1020.7 1020.0
15 16.01 С 2 10 км 9 баллов +3.8 +1.2 83 +1 +1 по сезону 1022.1 1021.3
18 16.01 С 1 20 км 10 баллов +2.9 +1.3 89 +1 +1 по сезону 1020.8 1020.0 +5.0
21 16.01 СВ 1 10 км слабый ливневой дождь 10 баллов +2.8 +1.2 89 +1 +1 по сезону 1020.8 1020.0
00 17.01 СВ 1 10 км слабый ливневой дождь 10 баллов +3.4 +2.1 91 +2 +2 по сезону 1022.1 1021.3
03 17.01 СВ 3 20 км в посл. час ливневой дождь 9 баллов +2.8 +1.2 89 -1 -1 по сезону 1022.1 1021.3 +2.5 2
06 17.01 СВ 1 10 км 10 баллов +2.9 +1.6 91 +1 +1 по сезону 1023.5 1022.7 +2.5 2
09 17.01 СВ 1 10 км 9 баллов +4.0 +2.4 89 +3 +3 по сезону 1023.5 1022.7
12 17.01 З 1 20 км 7 баллов +6.2 +3.4 82 +5 +6 тепло 1023.4 1022.7
15 17.01 В 2 20 км 4 балла +5.6 +2.9 83 +3 +3 по сезону 1023.5 1022.7
18 17.01 В 3 10 км слабый ливневой дождь 10 баллов +4.5 +1.4 80 +1 +1 по сезону 1024.8 1024.0 +7.0 0.3
21 17.01 СВ 2 10 км 10 баллов +3.0 +0.6 84 0 0 по сезону 1024.8 1024.0
00 18.01 СВ 2 20 км 10 баллов +3.3 +0.7 83 0 0 по сезону 1024.8 1024.0
03 18.01 СВ 2 20 км 10 баллов +2.9 +0.1 82 -0 -0 по сезону 1024.8 1024.0 +2.9 0.3
06 18.01 СВ 3 20 км 6 баллов +2.9 -0.0 81 -1 -1 по сезону 1024.8 1024.0 +2.4 0.0
09 18.01 СВ 3 20 км 9 баллов +4.5 +0.1 73 +1 +1 по сезону 1026.1 1025.3
12 18.01 СВ 6 50 км 9 баллов +4.8 +0.2 72 -0 -0 по сезону 1026.1 1025.3
15 18.01 СВ 5 20 км 9 баллов +2.5 -0.8 79 -3 -3 прохладно 1027.5 1026.7
18 18.01 СВ 6 20 км 9 баллов +1.6 -1.5 80 -4 -4 прохладно 1028.8 1028.0 +5.2
21 18.01 СВ 5 20 км 10 баллов +1.4 -2.0 78 -4 -4 прохладно 1030.1 1029.3
00 19.01 СВ 4 20 км 10 баллов +1.2 -2.0 79 -4 -4 прохладно 1031.5 1030.7
03 19.01 СВ 6 20 км 10 баллов +0.8 -1.8 83 -6 -6 холодно 1031.5 1030.7 +0.8
06 19.01 СВ 5 20 км 9 баллов +0.5 -2.0 83 -5 -5 прохладно 1032.8 1032.0 +0.4
09 19.01 СВ 5 20 км 7 баллов +1.3 -2.3 77 -4 -4 прохладно 1034.1 1033.3
12 19.01 СВ 5 20 км 4 балла +2.4 -2.1 72 -3 -2 прохладно 1032.8 1032.0
15 19.01 СВ 6 20 км 6 баллов +0.1 -3.3 78 -6 -6 холодно 1034.1 1033.3 0.0
18 19.01 СВ 5 20 км 10 баллов -0.6 -4.1 77 -7 -7 холодно 1034.1 1033.3 +2.5 0.0
21 19.01 С 3 20 км 9 баллов -1.4 -4.4 80 -6 -6 холодно 1034.1 1033.3
00 20.01 СВ 4 20 км 7 баллов -1.0 -3.8 81 -7 -7 холодно 1034.1 1033.3
03 20.01 СВ 4 20 км 7 баллов -2.9 -6.0 79 -9 -9 очень
холодно
1034.1 1033.3 -2.9
06 20.01 СВ 3 20 км 4 балла -3.6 -6.5 80 -9 -9 холодно 1034.1 1033.3 -3.8
09 20.01 С 5 20 км 1 балл -1.2 -4.2 80 -7 -6 холодно 1034.1 1033.3
12 20.01 С 4 20 км 1 балл -0.6 -4.5 75 -6 -5 холодно 1034.1 1033.3
15 20.01 СВ 4 20 км 1 балл -2.0 -5.5 77 -8 -8 очень
холодно
1032.8 1032.0
18 20.01 СВ 4 20 км ясно -2.7 -6.2 77 -9 -9 очень
холодно
1032.8 1032.0 -0.4
21 20.01 В 1 20 км ясно -3.6 -6.5 80 -6 -6 холодно 1032.8 1032.0
00 21.01 В 3 20 км 9 баллов -2.5 -4.8 84 -8 -8 холодно 1031.5 1030.7
03 21.01 В 2 20 км 10 баллов -0.1 -3.1 80 -4 -4 по сезону 1030.1 1029.3 -3.8
06 21.01 СВ 3 10 км 10 баллов +0.8 -1.4 85 -4 -4 по сезону 1028.8 1028.0 -3.8
09 21.01 СЗ 5 4000 м дымка 10 баллов +3.5 +1.2 85 -2 -2 по сезону 1028.8 1028.0
12 21.01 СЗ 7 4000 м дымка 10 баллов +3.7 +1.7 87 -2 -2 по сезону 1027.5 1026.7
15 21.01 С 2 10 км 10 баллов +3.2 +0.3 81 0 0 по сезону 1027.5 1026.7 0.0
18 21.01 В 2 4000 м слабый дождь 10 баллов +1.2 -0.6 88 -2 -2 по сезону 1028.8 1028.0 +4.1 0.7
21 21.01 В 2 4000 м слабый дождь 10 баллов +0.5 -0.9 90 -3 -3 по сезону 1028.8 1028.0
00 22.01 В 2 4000 м слабая морось 10 баллов +0.5 -0.6 92 -3 -3 по сезону 1030.1 1029.3
03 22.01 В 2 10 км слабая морось 10 баллов +0.1 -1.3 90 -4 -4 по сезону 1030.1 1029.3 0.0 3
06 22.01 В 3 10 км 10 баллов +0.3 -1.5 88 -4 -4 по сезону 1031.5 1030.7 0.0 3
09 22.01 СВ 4 20 км 10 баллов +1.6 -1.0 83 -3 -3 по сезону 1034.1 1033.3

 

Местоположение метеостанции Севастополь (город Севастополь, Россия): широта 44.62 долгота 33.53 высота над уровнем моря 6 м.

В архиве по умолчанию представлена погода в Севастополе за последнюю неделю. Архивные данные за месяц целиком и за предыдущие месяцы, начиная с января 2011 года, Вы можете получить, выбрав интересующий диапазон дат из раскрывающегося списка и нажав кнопку "Ввод!".

Внимание! Время в таблицах - всемирное. Для получения местного времени необходимо прибавить поправку, которая в Севастополе равна 3 ч.

Ветер - указаны скорость ветра в м/с - средняя за 10 мин, порывы в срок и между сроками (в фигурных скобках) и направление, откуда дует ветер: С - северный, СВ - северо-восточный, В - восточный, ЮВ - юго-восточный, Ю - южный, ЮЗ - юго-западный, З - западный, СЗ - северо-западный.
Видимость - горизонтальная дальность видимости в метрах или километрах. При видимости от 1 до 10 км при отсутствии осадков обычно наблюдается дымка, при ухудшении видимости до 1 км и менее - туман. В сухую погоду видимость может ухудшаться дымом, пылью или мглою.
Явления - указаны атмосферные явления, наблюдавшиеся в срок или в последний час перед сроком; фигурными скобками обозначены явления, наблюдавшиеся между сроками (за 1-3 часа до срока); квадратными скобками обозначены град или гололедные отложения с указанием их диаметра в мм.
Облачность - указаны через наклонную черту общая и нижняя облачность в баллах и высота нижней границы облаков в метрах; квадратными скобками обозначены формы облаков: Ci - перистые, Cs - перисто-слоистые, Cc - перисто-кучевые, Ac - высококучевые, As - высокослоистые, Sc - слоисто-кучевые, Ns - слоисто-дождевые, Cu - кучевые, Cb - кучево-дождевые. Подробнее классификацию облаков см. в Атласе облаков (PDF).
T - Температура воздуха - температура, измеренная на высоте 2 м над землей.
Td - Температура точки росы - температура, при понижении до которой содержащийся в воздухе водяной пар достигнет насыщения.
f - Относительная влажность воздуха - влажноcть воздуха, измеренная на высоте 2 м над землей.
Te - Эффективная температура - температура, которую ощущает одетый по сезону человек в тени. Характеристика душности погоды. При расчете учитывается влияние влажности воздуха и скорости ветра на теплоощущения человека.
Tes - Эффективная температура на солнце - температура, которую ощущает человек, с поправкой на солнечный нагрев. Характеристика знойности погоды. Зависит от высоты солнца над горизонтом, облачности и скорости ветра. Ночью, в пасмурную погоду, а также при ветре 12 м/с и более поправка равна нулю.
P - Атмосферное давление - приведенное к уровню моря атмосферное давление.
Po - Атмосферное давление - измеренное на уровне метеостанции атмосферное давление.
Tmin - Минимальная температура - минимум температуры воздуха на высоте 2 м над землей.
Tmax - Максимальная температура - максимум температуры воздуха на высоте 2 м над землей.
R - Количество осадков - Количество выпавших осадков, мм. При наведении курсора мыши на число - период времени, за который выпало указанное количество осадков.
S - Снежный покров - Высота снежного покрова, см. При наведении курсора мыши на число - состояние снежного покрова и степень покрытия местности в баллах.